Time,TemperatureF,DewpointF,PressureIn,WindDirection,WindDirectionDegrees,WindSpeedMPH,WindSpeedGustMPH,Humidity,HourlyPrecipIn,Conditions,Clouds,dailyrainin,SoftwareType,DateUTC
2013-08-09 00:01:00,76.6,73.4,30.01,WSW,238,0.0,0.0,90,0.00,,,0.00,meteohub,2013-08-09 04:01:00,
2013-08-09 00:02:00,76.6,73.4,30.01,WSW,238,0.0,0.0,90,0.00,,,0.00,meteohub,2013-08-09 04:02:00,
2013-08-09 00:03:00,76.6,73.8,30.01,WSW,238,0.0,0.0,91,0.00,,,0.00,meteohub,2013-08-09 04:03:00,
2013-08-09 00:08:00,76.8,73.9,30.01,WSW,238,0.0,0.0,91,0.00,,,0.00,meteohub,2013-08-09 04:08:00,
2013-08-09 00:14:00,76.8,73.9,30.01,WSW,238,0.0,0.0,91,0.00,,,0.00,meteohub,2013-08-09 04:14:00,
2013-08-09 00:19:00,76.6,73.8,30.01,WSW,238,0.0,0.0,91,0.00,,,0.00,meteohub,2013-08-09 04:19:00,
2013-08-09 00:24:00,76.6,73.8,30.01,WSW,238,0.0,0.0,91,0.00,,,0.00,meteohub,2013-08-09 04:24:00,
2013-08-09 00:29:00,76.6,73.4,30.01,WSW,238,0.0,0.0,90,0.00,,,0.00,meteohub,2013-08-09 04:29:00,
2013-08-09 00:34:00,76.6,73.4,30.01,WSW,238,0.0,0.0,90,0.00,,,0.00,meteohub,2013-08-09 04:34:00,
2013-08-09 00:39:00,76.6,73.4,30.01,WSW,238,0.0,0.0,90,0.00,,,0.00,meteohub,2013-08-09 04:39:00,
2013-08-09 00:45:00,76.6,73.8,30.01,WSW,238,0.0,0.0,91,0.00,,,0.00,meteohub,2013-08-09 04:45:00,
2013-08-09 00:50:00,76.6,73.8,30.01,WSW,238,0.0,0.0,91,0.00,,,0.00,meteohub,2013-08-09 04:50:00,
2013-08-09 00:55:00,76.6,73.8,30.01,WSW,238,0.0,0.0,91,0.00,,,0.00,meteohub,2013-08-09 04:55:00,
2013-08-09 01:00:00,76.6,73.8,30.01,WSW,238,0.0,0.0,91,0.00,,,0.00,meteohub,2013-08-09 05:00:00,
2013-08-09 01:06:00,76.6,73.8,30.01,WSW,238,0.0,0.0,91,0.00,,,0.00,meteohub,2013-08-09 05:06:00,
2013-08-09 01:11:00,76.5,73.6,30.01,WSW,238,0.0,0.0,91,0.00,,,0.00,meteohub,2013-08-09 05:11:00,
2013-08-09 01:16:00,76.5,73.6,30.01,WSW,238,0.0,0.0,91,0.00,,,0.00,meteohub,2013-08-09 05:16:00,
2013-08-09 01:21:00,76.5,73.6,30.01,WSW,238,0.0,0.0,91,0.00,,,0.00,meteohub,2013-08-09 05:21:00,
2013-08-09 01:26:00,76.5,73.6,30.01,WSW,238,0.0,0.0,91,0.00,,,0.00,meteohub,2013-08-09 05:26:00,
2013-08-09 01:32:00,76.3,73.8,30.01,WSW,238,0.0,0.0,92,0.00,,,0.00,meteohub,2013-08-09 05:32:00,
2013-08-09 01:37:00,76.3,73.8,30.01,WSW,238,0.0,0.0,92,0.00,,,0.00,meteohub,2013-08-09 05:37:00,
2013-08-09 01:42:00,76.3,73.8,30.01,WSW,238,0.0,0.0,92,0.00,,,0.00,meteohub,2013-08-09 05:42:00,
2013-08-09 01:47:00,76.1,73.6,30.01,WSW,238,0.0,0.0,92,0.00,,,0.00,meteohub,2013-08-09 05:47:00,
2013-08-09 01:52:00,75.9,73.8,30.01,WSW,238,0.0,0.0,93,0.00,,,0.00,meteohub,2013-08-09 05:52:00,
2013-08-09 01:57:00,75.9,73.8,30.01,WSW,238,0.0,0.0,93,0.00,,,0.00,meteohub,2013-08-09 05:57:00,
2013-08-09 02:02:00,75.7,73.6,30.01,WSW,238,0.0,0.0,93,0.00,,,0.00,meteohub,2013-08-09 06:02:00,
2013-08-09 02:07:00,75.7,73.9,30.00,SW,219,0.0,0.0,94,0.00,,,0.00,meteohub,2013-08-09 06:07:00,
2013-08-09 02:12:00,75.6,73.8,30.00,SSW,202,0.0,0.0,94,0.00,,,0.00,meteohub,2013-08-09 06:12:00,
2013-08-09 02:17:00,75.6,73.8,30.00,SSW,202,0.0,0.0,94,0.00,,,0.00,meteohub,2013-08-09 06:17:00,
2013-08-09 02:22:00,75.6,73.9,30.00,SSW,202,0.0,0.0,95,0.00,,,0.00,meteohub,2013-08-09 06:22:00,
2013-08-09 02:27:00,75.4,73.8,30.00,SSW,202,0.0,0.0,95,0.00,,,0.00,meteohub,2013-08-09 06:27:00,
2013-08-09 02:32:00,75.4,73.8,30.00,SSW,202,0.0,0.0,95,0.00,,,0.00,meteohub,2013-08-09 06:32:00,
2013-08-09 02:37:00,75.2,73.6,30.00,SSW,202,0.0,0.0,95,0.00,,,0.00,meteohub,2013-08-09 06:37:00,
2013-08-09 02:42:00,75.0,73.4,30.00,SSW,202,0.0,0.0,95,0.00,,,0.00,meteohub,2013-08-09 06:42:00,
2013-08-09 02:47:00,75.0,73.4,30.00,SSW,202,0.0,0.0,95,0.00,,,0.00,meteohub,2013-08-09 06:47:00,
2013-08-09 02:52:00,74.8,73.2,30.00,SSW,193,0.0,0.0,95,0.00,,,0.00,meteohub,2013-08-09 06:52:00,
2013-08-09 02:57:00,74.8,73.2,30.00,SSW,193,0.0,0.0,95,0.00,,,0.00,meteohub,2013-08-09 06:57:00,
2013-08-09 03:02:00,74.8,73.0,30.00,SSW,193,0.0,0.0,94,0.00,,,0.00,meteohub,2013-08-09 07:02:00,
2013-08-09 03:07:00,74.8,73.0,30.00,SSW,193,0.0,0.0,94,0.00,,,0.00,meteohub,2013-08-09 07:07:00,
2013-08-09 03:12:00,74.7,72.9,30.00,SSW,193,0.0,0.0,94,0.00,,,0.00,meteohub,2013-08-09 07:12:00,
2013-08-09 03:17:00,74.7,72.9,30.00,SSW,193,0.0,0.0,94,0.00,,,0.00,meteohub,2013-08-09 07:17:00,
2013-08-09 03:22:00,74.7,72.9,30.00,SSW,193,0.0,0.0,94,0.00,,,0.00,meteohub,2013-08-09 07:22:00,
2013-08-09 03:27:00,74.5,72.7,30.00,SSW,193,0.0,0.0,94,0.00,,,0.00,meteohub,2013-08-09 07:27:00,
2013-08-09 03:32:00,74.5,72.7,30.00,SSW,193,0.0,0.0,94,0.00,,,0.00,meteohub,2013-08-09 07:32:00,
2013-08-09 03:37:00,74.5,72.7,30.00,SSW,193,0.0,0.0,94,0.00,,,0.00,meteohub,2013-08-09 07:37:00,
2013-08-09 03:42:00,74.5,72.7,30.01,SSW,193,0.0,0.0,94,0.00,,,0.00,meteohub,2013-08-09 07:42:00,
2013-08-09 03:47:00,74.3,72.5,30.01,SSW,193,0.0,0.0,94,0.00,,,0.00,meteohub,2013-08-09 07:47:00,
2013-08-09 03:52:00,74.3,72.5,30.01,SSW,193,0.0,0.0,94,0.00,,,0.00,meteohub,2013-08-09 07:52:00,
2013-08-09 03:57:00,74.1,72.3,30.01,SW,223,0.0,0.0,94,0.00,,,0.00,meteohub,2013-08-09 07:57:00,
2013-08-09 04:02:00,74.1,72.3,30.01,SW,223,0.0,0.0,94,0.00,,,0.00,meteohub,2013-08-09 08:02:00,
2013-08-09 04:07:00,74.1,72.3,30.01,SW,223,0.0,0.0,94,0.00,,,0.00,meteohub,2013-08-09 08:07:00,
2013-08-09 04:12:00,73.9,72.1,30.01,SW,223,0.0,0.0,94,0.00,,,0.00,meteohub,2013-08-09 08:12:00,
2013-08-09 04:17:00,73.9,72.1,30.01,SW,223,0.0,0.0,94,0.00,,,0.00,meteohub,2013-08-09 08:17:00,
2013-08-09 04:22:00,73.9,72.1,30.01,SW,223,0.0,0.0,94,0.00,,,0.00,meteohub,2013-08-09 08:22:00,
2013-08-09 04:27:00,73.9,72.1,30.01,SW,223,0.0,0.0,94,0.00,,,0.00,meteohub,2013-08-09 08:27:00,
2013-08-09 04:32:00,73.8,72.3,30.00,SW,223,0.0,0.0,95,0.00,,,0.00,meteohub,2013-08-09 08:32:00,
2013-08-09 04:37:00,73.8,72.3,30.00,SW,223,0.0,0.0,95,0.00,,,0.00,meteohub,2013-08-09 08:37:00,
2013-08-09 04:42:00,73.8,72.3,30.01,SW,223,0.0,0.0,95,0.00,,,0.00,meteohub,2013-08-09 08:42:00,
2013-08-09 04:47:00,73.8,72.3,30.01,SW,223,0.0,0.0,95,0.00,,,0.00,meteohub,2013-08-09 08:47:00,
2013-08-09 04:52:00,73.8,72.3,30.01,SW,223,0.0,0.0,95,0.00,,,0.00,meteohub,2013-08-09 08:52:00,
2013-08-09 04:57:00,73.6,72.1,30.01,SW,223,0.0,0.0,95,0.00,,,0.00,meteohub,2013-08-09 08:57:00,
2013-08-09 05:02:00,73.6,72.1,30.01,SW,223,0.0,0.0,95,0.00,,,0.00,meteohub,2013-08-09 09:02:00,
2013-08-09 05:07:00,73.6,72.1,30.01,SW,223,0.0,0.0,95,0.00,,,0.00,meteohub,2013-08-09 09:07:00,
2013-08-09 05:12:00,73.6,72.1,30.01,SW,223,0.0,0.0,95,0.00,,,0.00,meteohub,2013-08-09 09:12:00,
2013-08-09 05:17:00,73.6,72.1,30.01,SW,223,0.0,0.0,95,0.00,,,0.00,meteohub,2013-08-09 09:17:00,
2013-08-09 05:22:00,73.4,72.0,30.01,SW,223,0.0,0.0,95,0.00,,,0.00,meteohub,2013-08-09 09:22:00,
2013-08-09 05:27:00,73.4,72.0,30.01,SW,223,0.0,0.0,95,0.00,,,0.00,meteohub,2013-08-09 09:27:00,
2013-08-09 05:32:00,73.4,72.0,30.01,SW,223,0.0,0.0,95,0.00,,,0.00,meteohub,2013-08-09 09:32:00,
2013-08-09 05:37:00,73.2,72.0,30.01,SW,223,0.0,0.0,96,0.00,,,0.00,meteohub,2013-08-09 09:37:00,
2013-08-09 05:42:00,73.2,72.0,30.01,SW,223,0.0,0.0,96,0.00,,,0.00,meteohub,2013-08-09 09:42:00,
2013-08-09 05:47:00,73.2,72.0,30.01,SW,223,0.0,0.0,96,0.00,,,0.00,meteohub,2013-08-09 09:47:00,
2013-08-09 05:52:00,73.2,72.0,30.01,SW,223,0.0,0.0,96,0.00,,,0.00,meteohub,2013-08-09 09:52:00,
2013-08-09 05:57:00,73.2,72.0,30.01,SW,223,0.0,0.0,96,0.00,,,0.00,meteohub,2013-08-09 09:57:00,
2013-08-09 06:02:00,73.2,72.0,30.01,SW,223,0.0,0.0,96,0.00,,,0.00,meteohub,2013-08-09 10:02:00,
2013-08-09 06:07:00,73.0,71.8,30.02,SW,223,0.0,0.0,96,0.00,,,0.00,meteohub,2013-08-09 10:07:00,
2013-08-09 06:12:00,73.0,71.8,30.01,SW,223,0.0,0.0,96,0.00,,,0.00,meteohub,2013-08-09 10:12:00,
2013-08-09 06:17:00,73.0,71.8,30.01,SW,223,0.0,0.0,96,0.00,,,0.00,meteohub,2013-08-09 10:17:00,
2013-08-09 06:22:00,73.0,71.8,30.02,SW,223,0.0,0.0,96,0.00,,,0.00,meteohub,2013-08-09 10:22:00,
2013-08-09 06:27:00,73.0,71.8,30.02,SW,223,0.0,0.0,96,0.00,,,0.00,meteohub,2013-08-09 10:27:00,
2013-08-09 06:32:00,73.0,71.8,30.02,SW,223,0.0,0.0,96,0.00,,,0.00,meteohub,2013-08-09 10:32:00,
2013-08-09 06:37:00,72.9,71.6,30.02,SSW,213,0.0,0.0,96,0.00,,,0.00,meteohub,2013-08-09 10:37:00,
2013-08-09 06:42:00,72.9,72.0,30.02,SW,214,0.0,0.0,97,0.00,,,0.00,meteohub,2013-08-09 10:42:00,
2013-08-09 06:47:00,72.9,72.0,30.02,SSW,209,0.0,0.0,97,0.00,,,0.00,meteohub,2013-08-09 10:47:00,
2013-08-09 06:52:00,72.9,72.0,30.02,SSW,209,0.0,0.0,97,0.00,,,0.00,meteohub,2013-08-09 10:52:00,
2013-08-09 06:57:00,72.9,72.0,30.02,SSW,209,0.0,0.0,97,0.00,,,0.00,meteohub,2013-08-09 10:57:00,
2013-08-09 07:02:00,72.9,72.0,30.02,SSW,209,0.0,0.0,97,0.00,,,0.00,meteohub,2013-08-09 11:02:00,
2013-08-09 07:07:00,72.9,72.0,30.01,ENE,67,0.0,0.0,97,0.00,,,0.00,meteohub,2013-08-09 11:07:00,
2013-08-09 07:12:00,72.9,72.0,30.02,ENE,67,0.0,0.0,97,0.00,,,0.00,meteohub,2013-08-09 11:12:00,
2013-08-09 07:17:00,72.9,72.0,30.02,ESE,115,0.0,0.0,97,0.00,,,0.00,meteohub,2013-08-09 11:17:00,
2013-08-09 07:22:00,72.9,72.0,30.03,SSW,198,0.0,0.0,97,0.00,,,0.00,meteohub,2013-08-09 11:22:00,
2013-08-09 07:27:00,72.9,72.0,30.03,SSW,198,0.0,0.0,97,0.00,,,0.00,meteohub,2013-08-09 11:27:00,
2013-08-09 07:32:00,72.9,72.0,30.03,SSW,198,0.0,0.0,97,0.00,,,0.00,meteohub,2013-08-09 11:32:00,
2013-08-09 07:37:00,73.0,72.1,30.03,SSW,198,0.0,0.0,97,0.00,,,0.00,meteohub,2013-08-09 11:37:00,
2013-08-09 07:42:00,73.0,72.1,30.03,SSW,198,0.0,0.0,97,0.00,,,0.00,meteohub,2013-08-09 11:42:00,
2013-08-09 07:47:00,73.0,72.1,30.03,SSW,200,0.0,0.0,97,0.00,,,0.00,meteohub,2013-08-09 11:47:00,
2013-08-09 07:52:00,73.0,72.1,30.03,SSW,213,0.0,0.0,97,0.00,,,0.00,meteohub,2013-08-09 11:52:00,
2013-08-09 07:57:00,73.2,72.3,30.03,SSW,213,0.0,0.0,97,0.00,,,0.00,meteohub,2013-08-09 11:57:00,
2013-08-09 08:02:00,73.2,72.3,30.03,SSW,213,0.0,0.0,97,0.00,,,0.00,meteohub,2013-08-09 12:02:00,
2013-08-09 08:07:00,73.4,72.5,30.03,SSW,213,0.0,0.0,97,0.00,,,0.00,meteohub,2013-08-09 12:07:00,
2013-08-09 08:12:00,73.6,72.7,30.03,SW,236,0.0,0.0,97,0.00,,,0.00,meteohub,2013-08-09 12:12:00,
2013-08-09 08:17:00,73.8,72.9,30.03,WSW,238,0.0,0.0,97,0.00,,,0.00,meteohub,2013-08-09 12:17:00,
2013-08-09 08:22:00,73.8,72.9,30.03,WSW,244,0.0,0.0,97,0.00,,,0.00,meteohub,2013-08-09 12:22:00,
2013-08-09 08:27:00,73.9,73.0,30.03,West,265,0.0,0.0,97,0.00,,,0.00,meteohub,2013-08-09 12:27:00,
2013-08-09 08:32:00,74.1,72.9,30.03,SW,235,0.0,0.0,96,0.00,,,0.00,meteohub,2013-08-09 12:32:00,
2013-08-09 08:37:00,74.5,73.2,30.03,SW,235,0.0,0.0,96,0.00,,,0.00,meteohub,2013-08-09 12:37:00,
2013-08-09 08:42:00,74.7,73.4,30.03,WSW,240,0.0,0.0,96,0.00,,,0.00,meteohub,2013-08-09 12:42:00,
2013-08-09 08:47:00,74.8,73.2,30.03,NW,324,0.0,0.0,95,0.00,,,0.00,meteohub,2013-08-09 12:47:00,
2013-08-09 08:52:00,75.0,73.4,30.03,WNW,288,0.0,0.0,95,0.00,,,0.00,meteohub,2013-08-09 12:52:00,
2013-08-09 08:57:00,75.4,73.8,30.03,SW,232,0.0,0.0,95,0.00,,,0.00,meteohub,2013-08-09 12:57:00,
2013-08-09 09:02:00,75.6,73.8,30.03,West,277,0.0,0.0,94,0.00,,,0.00,meteohub,2013-08-09 13:02:00,
2013-08-09 09:07:00,75.7,73.9,30.03,West,272,0.0,0.0,94,0.00,,,0.00,meteohub,2013-08-09 13:07:00,
2013-08-09 09:12:00,75.9,74.1,30.03,WNW,293,0.0,0.0,94,0.00,,,0.00,meteohub,2013-08-09 13:12:00,
2013-08-09 09:17:00,76.3,74.1,30.02,WSW,247,0.0,0.0,93,0.00,,,0.00,meteohub,2013-08-09 13:17:00,
2013-08-09 09:22:00,76.5,74.3,30.02,WSW,247,0.0,0.0,93,0.00,,,0.00,meteohub,2013-08-09 13:22:00,
2013-08-09 09:27:00,77.5,75.0,30.02,WSW,243,0.0,0.0,92,0.00,,,0.00,meteohub,2013-08-09 13:27:00,
2013-08-09 09:32:00,78.3,75.0,30.02,WSW,237,0.0,0.0,90,0.00,,,0.00,meteohub,2013-08-09 13:32:00,
2013-08-09 09:37:00,78.4,74.8,30.03,SW,218,0.0,0.0,89,0.00,,,0.00,meteohub,2013-08-09 13:37:00,
2013-08-09 09:42:00,78.8,75.0,30.03,SW,227,0.0,0.0,88,0.00,,,0.00,meteohub,2013-08-09 13:42:00,
2013-08-09 09:47:00,79.0,74.8,30.03,SW,215,0.0,0.0,87,0.00,,,0.00,meteohub,2013-08-09 13:47:00,
2013-08-09 09:52:00,79.3,75.2,30.03,SW,235,0.0,0.0,87,0.00,,,0.00,meteohub,2013-08-09 13:52:00,
2013-08-09 09:57:00,79.5,75.4,30.03,SW,223,0.0,0.0,87,0.00,,,0.00,meteohub,2013-08-09 13:57:00,
2013-08-09 10:02:00,79.9,75.4,30.03,WSW,240,0.0,0.0,86,0.00,,,0.00,meteohub,2013-08-09 14:02:00,
2013-08-09 10:07:00,80.2,75.4,30.03,NW,317,0.0,0.0,85,0.00,,,0.00,meteohub,2013-08-09 14:07:00,
2013-08-09 10:12:00,80.4,75.2,30.03,WNW,285,0.0,0.0,84,0.00,,,0.00,meteohub,2013-08-09 14:12:00,
2013-08-09 10:17:00,81.0,75.4,30.04,WSW,242,0.0,0.0,83,0.00,,,0.00,meteohub,2013-08-09 14:17:00,
2013-08-09 10:22:00,81.0,75.4,30.04,WNW,286,0.0,0.0,83,0.00,,,0.00,meteohub,2013-08-09 14:22:00,
2013-08-09 10:27:00,81.1,75.6,30.04,NW,304,0.0,0.0,83,0.00,,,0.00,meteohub,2013-08-09 14:27:00,
2013-08-09 10:32:00,81.5,75.9,30.04,WNW,300,0.0,0.0,83,0.00,,,0.00,meteohub,2013-08-09 14:32:00,
2013-08-09 10:37:00,81.9,75.7,30.04,West,281,0.0,0.0,82,0.00,,,0.00,meteohub,2013-08-09 14:37:00,
2013-08-09 10:42:00,82.0,75.6,30.04,West,265,0.0,0.0,81,0.00,,,0.00,meteohub,2013-08-09 14:42:00,
2013-08-09 10:47:00,82.4,75.9,30.04,WSW,252,0.0,0.0,81,0.00,,,0.00,meteohub,2013-08-09 14:47:00,
2013-08-09 10:52:00,82.6,76.1,30.04,West,267,0.0,0.0,81,0.00,,,0.00,meteohub,2013-08-09 14:52:00,
2013-08-09 10:57:00,82.8,75.9,30.04,SW,228,0.0,0.0,80,0.00,,,0.00,meteohub,2013-08-09 14:57:00,
2013-08-09 11:02:00,82.8,75.6,30.04,NNW,340,0.0,0.0,79,0.00,,,0.00,meteohub,2013-08-09 15:02:00,
2013-08-09 11:07:00,82.9,75.7,30.04,SW,229,2.0,0.0,79,0.00,,,0.00,meteohub,2013-08-09 15:07:00,
2013-08-09 11:12:00,83.1,75.9,30.04,WNW,296,0.0,4.0,79,0.00,,,0.00,meteohub,2013-08-09 15:12:00,
2013-08-09 11:17:00,83.5,76.3,30.04,NNE,23,1.0,5.0,79,0.00,,,0.00,meteohub,2013-08-09 15:17:00,
2013-08-09 11:22:00,83.7,76.5,30.04,WNW,292,0.0,5.0,79,0.00,,,0.00,meteohub,2013-08-09 15:22:00,
2013-08-09 11:27:00,83.7,76.1,30.04,SW,234,0.0,5.0,78,0.00,,,0.00,meteohub,2013-08-09 15:27:00,
2013-08-09 11:32:00,83.8,75.9,30.04,WSW,242,0.0,4.0,77,0.00,,,0.00,meteohub,2013-08-09 15:32:00,
2013-08-09 11:37:00,83.8,75.4,30.04,NNW,335,2.0,4.0,76,0.00,,,0.00,meteohub,2013-08-09 15:37:00,
2013-08-09 11:42:00,84.0,75.6,30.04,NNW,338,3.0,4.0,76,0.00,,,0.00,meteohub,2013-08-09 15:42:00,
2013-08-09 11:47:00,84.0,75.2,30.03,NW,326,3.0,5.0,75,0.00,,,0.00,meteohub,2013-08-09 15:47:00,
2013-08-09 11:52:00,84.2,75.7,30.03,West,271,5.0,5.0,76,0.00,,,0.00,meteohub,2013-08-09 15:52:00,
2013-08-09 11:57:00,84.4,75.9,30.03,NW,313,2.0,5.0,76,0.00,,,0.00,meteohub,2013-08-09 15:57:00,
2013-08-09 12:02:00,84.7,75.9,30.03,WSW,248,2.0,7.0,75,0.00,,,0.00,meteohub,2013-08-09 16:02:00,
2013-08-09 12:07:00,84.7,75.6,30.03,WSW,255,2.0,7.0,74,0.00,,,0.00,meteohub,2013-08-09 16:07:00,
2013-08-09 12:12:00,84.9,75.2,30.03,WSW,254,2.0,7.0,73,0.00,,,0.00,meteohub,2013-08-09 16:12:00,
2013-08-09 12:17:00,84.7,75.2,30.03,SW,236,1.0,5.0,73,0.00,,,0.00,meteohub,2013-08-09 16:17:00,
2013-08-09 12:22:00,84.7,75.6,30.03,East,95,1.0,5.0,74,0.00,,,0.00,meteohub,2013-08-09 16:22:00,
2013-08-09 12:27:00,84.9,75.2,30.03,SW,233,0.0,3.0,73,0.00,,,0.00,meteohub,2013-08-09 16:27:00,
2013-08-09 12:32:00,84.7,75.9,30.03,NE,47,0.0,3.0,75,0.00,,,0.00,meteohub,2013-08-09 16:32:00,
2013-08-09 12:37:00,85.1,75.9,30.03,ESE,109,1.0,3.0,74,0.00,,,0.00,meteohub,2013-08-09 16:37:00,
2013-08-09 12:42:00,85.5,76.3,30.03,WNW,290,2.0,5.0,74,0.00,,,0.00,meteohub,2013-08-09 16:42:00,
2013-08-09 12:47:00,85.5,75.4,30.03,WNW,295,2.0,5.0,72,0.00,,,0.00,meteohub,2013-08-09 16:47:00,
2013-08-09 12:52:00,85.6,75.6,30.03,WNW,298,0.0,6.0,72,0.00,,,0.00,meteohub,2013-08-09 16:52:00,
2013-08-09 12:57:00,85.8,75.4,30.02,NNW,341,1.0,6.0,71,0.00,,,0.00,meteohub,2013-08-09 16:57:00,
2013-08-09 13:02:00,85.8,75.4,30.02,WSW,237,2.0,6.0,71,0.00,,,0.00,meteohub,2013-08-09 17:02:00,
2013-08-09 13:07:00,86.0,75.9,30.02,South,174,0.0,6.0,72,0.00,,,0.00,meteohub,2013-08-09 17:07:00,
2013-08-09 13:12:00,86.2,75.7,30.02,WSW,239,2.0,6.0,71,0.00,,,0.00,meteohub,2013-08-09 17:12:00,
2013-08-09 13:17:00,86.0,75.6,30.02,East,79,1.0,6.0,71,0.00,,,0.00,meteohub,2013-08-09 17:17:00,
2013-08-09 13:22:00,86.0,75.6,30.02,SW,235,1.0,5.0,71,0.00,,,0.00,meteohub,2013-08-09 17:22:00,
2013-08-09 13:27:00,86.5,75.9,30.02,West,276,0.0,5.0,71,0.00,,,0.00,meteohub,2013-08-09 17:27:00,
2013-08-09 13:32:00,86.5,75.9,30.02,NW,315,0.0,5.0,71,0.00,,,0.00,meteohub,2013-08-09 17:32:00,
2013-08-09 13:37:00,86.4,75.9,30.02,WSW,247,2.0,5.0,71,0.00,,,0.00,meteohub,2013-08-09 17:37:00,
2013-08-09 13:42:00,86.2,76.1,30.02,West,280,0.0,5.0,72,0.00,,,0.00,meteohub,2013-08-09 17:42:00,
2013-08-09 13:47:00,86.2,75.7,30.02,SSW,200,1.0,5.0,71,0.00,,,0.00,meteohub,2013-08-09 17:47:00,
2013-08-09 13:52:00,85.6,75.9,30.01,West,269,1.0,3.0,73,0.00,,,0.00,meteohub,2013-08-09 17:52:00,
2013-08-09 13:57:00,85.8,77.0,30.01,WNW,286,2.0,3.0,75,0.00,,,0.00,meteohub,2013-08-09 17:57:00,
2013-08-09 14:02:00,86.5,75.9,30.01,SSW,194,0.0,4.0,71,0.00,,,0.00,meteohub,2013-08-09 18:02:00,
2013-08-09 14:07:00,86.2,76.5,30.01,South,182,0.0,4.0,73,0.00,,,0.00,meteohub,2013-08-09 18:07:00,
2013-08-09 14:12:00,86.2,77.0,30.01,NNE,16,0.0,4.0,74,0.00,,,0.00,meteohub,2013-08-09 18:12:00,
2013-08-09 14:17:00,86.7,76.6,30.01,NW,321,0.0,3.0,72,0.00,,,0.00,meteohub,2013-08-09 18:17:00,
2013-08-09 14:22:00,87.1,76.5,30.01,South,177,0.0,2.0,71,0.00,,,0.00,meteohub,2013-08-09 18:22:00,
2013-08-09 14:27:00,87.1,76.1,30.01,SW,236,0.0,8.0,70,0.00,,,0.00,meteohub,2013-08-09 18:27:00,
2013-08-09 14:32:00,87.3,76.3,30.00,SW,236,1.0,8.0,70,0.00,,,0.00,meteohub,2013-08-09 18:32:00,
2013-08-09 14:37:00,87.1,76.1,30.00,NNW,327,5.0,6.0,70,0.00,,,0.00,meteohub,2013-08-09 18:37:00,
2013-08-09 14:42:00,87.3,75.9,30.00,WNW,298,1.0,5.0,69,0.00,,,0.00,meteohub,2013-08-09 18:42:00,
2013-08-09 14:47:00,87.3,75.9,30.00,WSW,251,0.0,5.0,69,0.00,,,0.00,meteohub,2013-08-09 18:47:00,
2013-08-09 14:52:00,87.4,76.5,30.00,NW,312,3.0,5.0,70,0.00,,,0.00,meteohub,2013-08-09 18:52:00,
2013-08-09 14:57:00,87.1,76.1,30.00,West,274,0.0,4.0,70,0.00,,,0.00,meteohub,2013-08-09 18:57:00,
2013-08-09 15:02:00,87.1,76.1,30.00,NW,309,1.0,4.0,70,0.00,,,0.00,meteohub,2013-08-09 19:02:00,
2013-08-09 15:07:00,87.6,77.5,30.00,WSW,254,0.0,4.0,72,0.00,,,0.00,meteohub,2013-08-09 19:07:00,
2013-08-09 15:12:00,87.8,76.8,30.00,SSW,205,0.0,4.0,70,0.00,,,0.00,meteohub,2013-08-09 19:12:00,
2013-08-09 15:17:00,87.3,76.3,30.00,SSW,204,0.0,4.0,70,0.00,,,0.00,meteohub,2013-08-09 19:17:00,
2013-08-09 15:22:00,87.1,77.4,30.00,SW,215,0.0,4.0,73,0.00,,,0.00,meteohub,2013-08-09 19:22:00,
2013-08-09 15:27:00,87.3,76.6,29.99,SW,215,1.0,3.0,71,0.00,,,0.00,meteohub,2013-08-09 19:27:00,
2013-08-09 15:32:00,87.1,76.5,29.99,SW,217,1.0,2.0,71,0.00,,,0.00,meteohub,2013-08-09 19:32:00,
2013-08-09 15:37:00,86.5,76.5,29.99,West,276,0.0,2.0,72,0.00,,,0.00,meteohub,2013-08-09 19:37:00,
2013-08-09 15:42:00,86.5,77.2,29.99,SSW,199,0.0,3.0,74,0.00,,,0.00,meteohub,2013-08-09 19:42:00,
2013-08-09 15:47:00,86.7,76.6,29.99,NNW,341,0.0,3.0,72,0.00,,,0.00,meteohub,2013-08-09 19:47:00,
2013-08-09 15:52:00,86.7,77.0,29.99,West,269,0.0,3.0,73,0.00,,,0.00,meteohub,2013-08-09 19:52:00,
2013-08-09 15:57:00,86.7,77.0,29.99,SW,233,0.0,3.0,73,0.00,,,0.00,meteohub,2013-08-09 19:57:00,
2013-08-09 16:02:00,87.1,76.5,29.99,WSW,238,0.0,3.0,71,0.00,,,0.00,meteohub,2013-08-09 20:02:00,
2013-08-09 16:07:00,86.5,76.8,29.99,East,100,0.0,5.0,73,0.00,,,0.00,meteohub,2013-08-09 20:07:00,
2013-08-09 16:12:00,85.6,76.8,29.98,East,100,0.0,5.0,75,0.00,,,0.00,meteohub,2013-08-09 20:12:00,
2013-08-09 16:17:00,86.4,77.0,29.98,SW,231,1.0,5.0,74,0.00,,,0.00,meteohub,2013-08-09 20:17:00,
2013-08-09 16:22:00,86.5,76.8,29.98,SSW,207,0.0,5.0,73,0.00,,,0.00,meteohub,2013-08-09 20:22:00,
2013-08-09 16:27:00,86.7,77.4,29.98,ESE,116,1.0,5.0,74,0.00,,,0.00,meteohub,2013-08-09 20:27:00,
2013-08-09 16:32:00,86.5,76.8,29.98,South,190,0.0,5.0,73,0.00,,,0.00,meteohub,2013-08-09 20:32:00,
2013-08-09 16:37:00,86.5,77.2,29.97,ESE,111,0.0,4.0,74,0.00,,,0.00,meteohub,2013-08-09 20:37:00,
2013-08-09 16:42:00,86.2,76.5,29.97,SSW,213,0.0,5.0,73,0.00,,,0.00,meteohub,2013-08-09 20:42:00,
2013-08-09 16:47:00,86.2,76.5,29.97,SW,236,2.0,5.0,73,0.00,,,0.00,meteohub,2013-08-09 20:47:00,
2013-08-09 16:52:00,86.4,76.6,29.97,ESE,119,0.0,3.0,73,0.00,,,0.00,meteohub,2013-08-09 20:52:00,
2013-08-09 16:57:00,86.4,76.6,29.96,SE,128,0.0,3.0,73,0.00,,,0.00,meteohub,2013-08-09 20:57:00,
2013-08-09 17:02:00,86.4,77.0,29.97,WSW,240,0.0,3.0,74,0.00,,,0.00,meteohub,2013-08-09 21:02:00,
2013-08-09 17:07:00,86.7,77.4,29.97,ENE,67,0.0,3.0,74,0.00,,,0.00,meteohub,2013-08-09 21:07:00,
2013-08-09 17:12:00,86.4,77.0,29.98,SW,223,1.0,3.0,74,0.00,,,0.00,meteohub,2013-08-09 21:12:00,
2013-08-09 17:17:00,86.2,77.0,29.98,SW,223,0.0,3.0,74,0.00,,,0.00,meteohub,2013-08-09 21:17:00,
2013-08-09 17:22:00,85.3,76.8,29.98,SW,224,0.0,3.0,76,0.00,,,0.00,meteohub,2013-08-09 21:22:00,
2013-08-09 17:27:00,84.6,76.1,29.98,SSE,157,0.0,2.0,76,0.00,,,0.00,meteohub,2013-08-09 21:27:00,
2013-08-09 17:32:00,84.4,75.9,29.97,SSW,205,0.0,2.0,76,0.00,,,0.00,meteohub,2013-08-09 21:32:00,
2013-08-09 17:37:00,84.4,75.9,29.98,WSW,242,0.0,2.0,76,0.00,,,0.00,meteohub,2013-08-09 21:37:00,
2013-08-09 17:42:00,84.0,76.1,29.98,SW,233,1.0,2.0,77,0.00,,,0.00,meteohub,2013-08-09 21:42:00,
2013-08-09 17:47:00,83.8,75.9,29.98,SW,233,1.0,5.0,77,0.00,,,0.00,meteohub,2013-08-09 21:47:00,
2013-08-09 17:52:00,83.5,75.9,29.99,West,261,0.0,5.0,78,0.00,,,0.00,meteohub,2013-08-09 21:52:00,
2013-08-09 17:57:00,83.3,75.7,29.99,SW,234,0.0,5.0,78,0.00,,,0.00,meteohub,2013-08-09 21:57:00,
2013-08-09 18:02:00,83.1,75.6,29.99,West,278,0.0,4.0,78,0.00,,,0.00,meteohub,2013-08-09 22:02:00,
2013-08-09 18:07:00,82.9,75.7,29.98,SW,232,2.0,4.0,79,0.00,,,0.00,meteohub,2013-08-09 22:07:00,
2013-08-09 18:12:00,82.8,75.6,29.98,SW,232,0.0,4.0,79,0.00,,,0.00,meteohub,2013-08-09 22:12:00,
2013-08-09 18:17:00,82.6,75.7,29.98,WSW,248,0.0,3.0,80,0.00,,,0.00,meteohub,2013-08-09 22:17:00,
2013-08-09 18:22:00,82.2,75.7,29.97,WSW,248,0.0,3.0,81,0.00,,,0.00,meteohub,2013-08-09 22:22:00,
2013-08-09 18:27:00,82.0,75.2,29.97,WSW,248,0.0,0.0,80,0.00,,,0.00,meteohub,2013-08-09 22:27:00,
2013-08-09 18:32:00,82.0,75.6,29.97,WSW,248,0.0,0.0,81,0.00,,,0.00,meteohub,2013-08-09 22:32:00,
2013-08-09 18:37:00,81.9,75.4,29.97,WSW,248,0.0,0.0,81,0.00,,,0.00,meteohub,2013-08-09 22:37:00,
2013-08-09 18:42:00,81.7,75.6,29.97,WSW,248,0.0,0.0,82,0.00,,,0.00,meteohub,2013-08-09 22:42:00,
2013-08-09 18:47:00,81.5,75.4,29.97,WSW,248,0.0,0.0,82,0.00,,,0.00,meteohub,2013-08-09 22:47:00,
2013-08-09 18:52:00,81.3,75.4,29.97,WNW,290,0.0,0.0,82,0.00,,,0.00,meteohub,2013-08-09 22:52:00,
2013-08-09 18:57:00,81.1,75.2,29.97,SW,222,0.0,0.0,82,0.00,,,0.00,meteohub,2013-08-09 22:57:00,
2013-08-09 19:02:00,81.1,75.6,29.97,SW,222,0.0,0.0,83,0.00,,,0.00,meteohub,2013-08-09 23:02:00,
2013-08-09 19:07:00,81.0,75.4,29.98,West,270,0.0,0.0,83,0.00,,,0.00,meteohub,2013-08-09 23:07:00,
2013-08-09 19:12:00,80.6,74.7,29.98,WSW,238,0.0,0.0,82,0.00,,,0.00,meteohub,2013-08-09 23:12:00,
2013-08-09 19:17:00,80.2,74.3,29.98,WSW,238,0.0,0.0,82,0.00,,,0.00,meteohub,2013-08-09 23:17:00,
2013-08-09 19:22:00,80.1,74.1,29.99,WSW,247,0.0,3.0,82,0.00,,,0.00,meteohub,2013-08-09 23:22:00,
2013-08-09 19:27:00,79.7,73.8,29.99,West,267,1.0,3.0,82,0.00,,,0.00,meteohub,2013-08-09 23:27:00,
2013-08-09 19:32:00,79.3,73.8,29.99,WSW,248,2.0,3.0,83,0.00,,,0.00,meteohub,2013-08-09 23:32:00,
2013-08-09 19:37:00,79.0,73.4,29.99,WSW,248,0.0,2.0,83,0.00,,,0.00,meteohub,2013-08-09 23:37:00,
2013-08-09 19:42:00,78.6,73.0,29.99,WSW,257,0.0,3.0,83,0.00,,,0.00,meteohub,2013-08-09 23:42:00,
2013-08-09 19:47:00,78.3,73.0,29.99,WSW,257,0.0,3.0,84,0.00,,,0.00,meteohub,2013-08-09 23:47:00,
2013-08-09 19:52:00,78.1,72.9,29.99,WSW,243,0.0,3.0,84,0.00,,,0.00,meteohub,2013-08-09 23:52:00,
2013-08-09 19:57:00,77.7,72.5,29.99,WSW,243,0.0,0.0,84,0.00,,,0.00,meteohub,2013-08-09 23:57:00,
2013-08-09 20:02:00,77.5,72.3,29.99,WSW,243,0.0,0.0,84,0.00,,,0.00,meteohub,2013-08-10 00:02:00,
2013-08-09 20:07:00,77.4,72.1,29.99,WSW,243,0.0,0.0,84,0.00,,,0.00,meteohub,2013-08-10 00:07:00,
2013-08-09 20:12:00,77.4,72.1,29.99,WSW,257,0.0,0.0,84,0.00,,,0.00,meteohub,2013-08-10 00:12:00,
2013-08-09 20:17:00,77.0,71.8,29.99,WSW,257,0.0,0.0,84,0.00,,,0.00,meteohub,2013-08-10 00:17:00,
2013-08-09 20:22:00,76.8,71.6,29.99,WSW,257,0.0,0.0,84,0.00,,,0.00,meteohub,2013-08-10 00:22:00,
2013-08-09 20:27:00,76.6,71.8,29.99,WSW,257,0.0,0.0,85,0.00,,,0.00,meteohub,2013-08-10 00:27:00,
2013-08-09 20:32:00,76.6,71.8,29.99,WSW,257,0.0,0.0,85,0.00,,,0.00,meteohub,2013-08-10 00:32:00,
2013-08-09 20:37:00,76.5,72.0,30.00,WSW,257,0.0,0.0,86,0.00,,,0.00,meteohub,2013-08-10 00:37:00,
2013-08-09 20:42:00,76.3,71.8,29.99,WSW,257,0.0,0.0,86,0.00,,,0.00,meteohub,2013-08-10 00:42:00,
2013-08-09 20:47:00,76.1,71.6,29.99,WSW,257,0.0,0.0,86,0.00,,,0.00,meteohub,2013-08-10 00:47:00,
2013-08-09 20:52:00,76.1,71.6,29.99,WSW,257,0.0,0.0,86,0.00,,,0.00,meteohub,2013-08-10 00:52:00,
2013-08-09 20:57:00,75.9,71.1,29.99,WSW,257,0.0,0.0,85,0.00,,,0.00,meteohub,2013-08-10 00:57:00,
2013-08-09 21:02:00,75.9,71.4,30.00,WSW,257,0.0,0.0,86,0.00,,,0.00,meteohub,2013-08-10 01:02:00,
2013-08-09 21:07:00,75.9,71.1,30.00,WSW,257,0.0,0.0,85,0.00,,,0.00,meteohub,2013-08-10 01:07:00,
2013-08-09 21:12:00,75.9,71.1,30.00,WSW,257,0.0,0.0,85,0.00,,,0.00,meteohub,2013-08-10 01:12:00,
2013-08-09 21:17:00,75.9,71.1,30.01,WSW,257,0.0,0.0,85,0.00,,,0.00,meteohub,2013-08-10 01:17:00,
2013-08-09 21:22:00,75.9,71.1,30.01,WSW,257,0.0,0.0,85,0.00,,,0.00,meteohub,2013-08-10 01:22:00,
2013-08-09 21:27:00,75.9,71.4,30.01,WSW,257,0.0,0.0,86,0.00,,,0.00,meteohub,2013-08-10 01:27:00,
2013-08-09 21:32:00,75.7,71.6,30.01,WSW,257,0.0,0.0,87,0.00,,,0.00,meteohub,2013-08-10 01:32:00,
2013-08-09 21:37:00,75.9,71.8,30.01,WSW,257,0.0,0.0,87,0.00,,,0.00,meteohub,2013-08-10 01:37:00,
2013-08-09 21:42:00,75.7,71.2,30.01,WSW,257,0.0,0.0,86,0.00,,,0.00,meteohub,2013-08-10 01:42:00,
2013-08-09 21:47:00,75.9,71.8,30.02,WNW,292,0.0,0.0,87,0.00,,,0.00,meteohub,2013-08-10 01:47:00,
2013-08-09 21:52:00,76.1,71.6,30.02,West,264,0.0,2.0,86,0.00,,,0.00,meteohub,2013-08-10 01:52:00,
2013-08-09 21:57:00,76.5,71.6,30.02,WSW,251,0.0,2.0,85,0.00,,,0.00,meteohub,2013-08-10 01:57:00,
2013-08-09 22:02:00,76.5,71.6,30.02,WSW,254,0.0,2.0,85,0.00,,,0.00,meteohub,2013-08-10 02:02:00,
2013-08-09 22:07:00,76.3,71.4,30.02,WSW,253,0.0,2.0,85,0.00,,,0.00,meteohub,2013-08-10 02:07:00,
2013-08-09 22:12:00,76.3,71.4,30.02,WNW,288,0.0,2.0,85,0.00,,,0.00,meteohub,2013-08-10 02:12:00,
2013-08-09 22:17:00,76.1,71.2,30.02,West,267,0.0,2.0,85,0.00,,,0.00,meteohub,2013-08-10 02:17:00,
2013-08-09 22:22:00,76.1,71.6,30.02,West,267,0.0,2.0,86,0.00,,,0.00,meteohub,2013-08-10 02:22:00,
2013-08-09 22:27:00,76.1,71.6,30.02,West,271,1.0,2.0,86,0.00,,,0.00,meteohub,2013-08-10 02:27:00,
2013-08-09 22:32:00,76.1,71.6,30.02,West,273,0.0,2.0,86,0.00,,,0.00,meteohub,2013-08-10 02:32:00,
2013-08-09 22:37:00,76.3,71.8,30.03,WNW,291,0.0,2.0,86,0.00,,,0.00,meteohub,2013-08-10 02:37:00,
2013-08-09 22:42:00,76.3,71.8,30.03,WNW,288,0.0,2.0,86,0.00,,,0.00,meteohub,2013-08-10 02:42:00,
2013-08-09 22:47:00,76.1,71.6,30.04,WSW,242,2.0,2.0,86,0.00,,,0.00,meteohub,2013-08-10 02:47:00,
2013-08-09 22:52:00,76.1,72.0,30.03,WSW,250,0.0,3.0,87,0.00,,,0.00,meteohub,2013-08-10 02:52:00,
2013-08-09 22:57:00,75.9,71.8,30.04,WNW,298,0.0,4.0,87,0.00,,,0.00,meteohub,2013-08-10 02:57:00,
2013-08-09 23:02:00,75.9,71.8,30.04,WNW,287,1.0,4.0,87,0.00,,,0.00,meteohub,2013-08-10 03:02:00,
2013-08-09 23:07:00,75.9,71.8,30.04,WNW,286,0.0,4.0,87,0.00,,,0.00,meteohub,2013-08-10 03:07:00,
2013-08-09 23:12:00,75.9,72.1,30.04,WNW,286,0.0,3.0,88,0.00,,,0.00,meteohub,2013-08-10 03:12:00,
2013-08-09 23:17:00,75.7,72.0,30.04,NW,320,1.0,3.0,88,0.00,,,0.00,meteohub,2013-08-10 03:17:00,
2013-08-09 23:22:00,75.7,72.0,30.04,WNW,283,0.0,2.0,88,0.00,,,0.00,meteohub,2013-08-10 03:22:00,
2013-08-09 23:27:00,75.7,72.0,30.04,WNW,283,0.0,2.0,88,0.00,,,0.00,meteohub,2013-08-10 03:27:00,
2013-08-09 23:32:00,75.7,72.0,30.04,West,259,0.0,2.0,88,0.00,,,0.00,meteohub,2013-08-10 03:32:00,
2013-08-09 23:37:00,75.6,72.1,30.04,West,262,0.0,0.0,89,0.00,,,0.00,meteohub,2013-08-10 03:37:00,
2013-08-09 23:42:00,75.6,72.1,30.04,West,262,0.0,0.0,89,0.00,,,0.00,meteohub,2013-08-10 03:42:00,
2013-08-09 23:47:00,75.6,72.1,30.04,West,267,0.0,0.0,89,0.00,,,0.00,meteohub,2013-08-10 03:47:00,
2013-08-09 23:52:00,75.6,72.1,30.04,West,267,0.0,0.0,89,0.00,,,0.00,meteohub,2013-08-10 03:52:00,
2013-08-09 23:57:00,75.7,72.3,30.04,West,267,0.0,0.0,89,0.00,,,0.00,meteohub,2013-08-10 03:57:00,